Wind_Speed
28 27 27 27 26 26 25 24 23 22 21 20 20 19 19 18 17 17 16 15 14 14 15 15 15 14 13 13 13 13 14 14 14 14 13 13 12 12 11 10 10 9 7 6 5 4 3 3 3 3 3 2 1 1 2 4 5 6 7 7 7 8 8 9 9 9 10 10 10
28 27 26 26 25 25 24 23 22 21 20 19 19 18 18 17 17 16 16 15 14 14 14 15 14 13 13 12 12 13 13 13 13 12 11 11 10 10 9 9 8 7 6 5 4 4 3 3 3 2 1 1 2 3 4 5 6 7 8 8 9 9 10 10 10 9 9 10 10
28 27 26 26 25 25 24 23 22 21 19 18 18 17 16 16 16 16 15 14 14 14 15 14 13 12 12 12 12 12 12 12 11 11 10 10 9 9 8 8 7 6 6 5 4 4 3 2 2 2 3 4 4 5 6 7 7 8 9 9 9 9 10 9 9 9 8 8 8
27 27 26 26 25 25 24 23 22 20 18 17 17 16 15 15 16 16 15 15 14 15 15 14 13 12 11 11 11 11 11 11 11 10 10 10 9 8 8 7 7 7 6 6 5 3 3 3 4 4 5 5 5 6 7 8 8 8 9 8 7 7 7 7 7 6 6 6 6
27 26 26 25 25 24 24 23 21 19 17 16 16 15 15 15 16 16 16 16 16 16 15 13 13 12 12 12 12 12 12 11 11 11 10 10 10 9 9 8 8 7 6 5 4 3 4 5 6 6 6 7 7 8 8 8 7 7 7 6 5 4 4 4 4 3 3 4 4
27 26 25 24 24 24 23 22 20 18 17 16 16 16 16 17 17 17 17 17 17 16 15 14 14 14 14 14 14 14 13 12 11 11 11 11 11 11 11 10 8 7 6 4 4 5 6 7 8 9 9 9 9 9 7 6 5 5 5 5 4 2 2 1 1 2 2 2 3
26 25 24 24 23 23 23 21 19 18 17 17 17 17 17 17 17 17 18 18 17 17 16 16 16 16 16 16 16 15 13 12 12 12 12 12 13 12 11 10 9 7 6 7 8 9 9 9 10 11 11 10 9 8 5 3 3 3 4 4 4 3 2 2 1 1 1 1 2
25 24 24 23 23 23 22 20 19 18 18 18 18 18 18 18 18 18 18 18 17 17 17 17 17 18 18 17 16 15 13 13 13 13 13 13 13 12 11 10 9 9 9 10 11 11 11 10 11 11 11 9 8 6 4 3 3 3 4 5 4 4 3 3 2 1 1 2 3
25 24 23 22 22 22 21 20 19 18 19 19 19 18 18 18 18 18 18 17 17 17 17 17 18 18 18 17 16 15 14 14 14 14 14 13 12 12 11 11 11 12 12 12 11 11 11 11 11 11 10 8 6 5 4 3 3 3 4 5 5 4 3 3 2 2 2 3 4
25 24 23 22 22 21 21 20 19 19 19 19 19 18 18 18 18 18 18 17 17 16 17 17 18 18 17 17 17 16 16 16 15 15 14 13 13 12 12 12 13 13 13 12 11 10 10 10 10 10 9 7 6 6 5 4 3 3 4 4 4 4 3 3 3 3 4 5 6
26 24 23 22 22 21 21 21 20 19 19 19 19 19 19 19 20 19 18 17 17 17 18 18 19 19 18 18 18 17 17 16 16 15 15 14 14 13 13 14 14 14 13 12 11 10 10 9 9 9 9 8 7 7 6 5 4 4 4 4 4 3 4 4 4 4 5 6 7
26 24 23 22 22 22 22 21 21 20 20 19 20 20 21 21 21 20 19 18 19 20 20 20 20 20 20 20 19 18 17 16 16 15 15 15 15 15 15 14 14 13 13 12 11 10 10 9 9 9 9 9 8 7 6 5 4 4 4 4 4 4 5 5 5 5 6 6 7
26 25 24 23 22 22 22 22 22 21 20 20 21 21 22 22 22 21 20 20 21 22 22 22 22 21 21 20 20 18 17 16 16 16 16 16 15 15 15 14 13 13 12 12 11 10 10 10 9 9 9 8 7 6 5 4 4 4 5 5 5 6 7 7 7 7 7 7 10
26 25 24 24 23 23 23 23 22 21 21 21 22 22 22 23 23 22 22 21 22 23 24 23 23 22 21 21 19 18 17 17 17 16 16 16 15 15 15 14 13 12 12 12 11 11 10 10 9 8 8 7 7 6 5 4 4 4 5 6 7 8 9 9 10 10 10 11 13
27 26 25 24 24 24 23 23 22 21 22 22 22 23 23 23 23 23 22 22 23 24 24 23 23 22 21 20 20 19 18 18 18 17 16 16 16 15 15 14 14 13 13 13 12 11 10 9 8 7 6 6 6 5 5 4 4 5 5 6 8 9 10 11 11 12 13 14 15
27 27 26 26 25 24 23 23 22 22 23 23 23 24 24 24 24 24 23 23 24 24 23 23 23 22 22 21 20 20 20 19 18 17 17 17 16 16 15 15 14 14 13 13 12 11 9 8 7 6 5 5 5 5 5 4 5 5 6 7 9 10 11 12 12 13 13 14 14
28 27 27 27 26 25 24 24 24 24 24 24 24 25 25 25 25 25 25 24 24 24 23 23 23 23 23 22 21 21 21 20 19 18 17 16 16 16 15 15 14 13 12 12 11 10 9 7 6 5 4 4 4 4 5 5 6 7 8 9 10 11 11 12 12 13 13 13 13
28 28 28 27 27 26 26 26 26 25 25 25 25 26 26 27 27 27 26 25 25 24 24 23 23 23 24 24 23 22 21 20 19 18 17 17 16 16 15 14 13 12 11 10 10 9 8 7 6 5 5 4 4 5 5 6 7 9 9 10 11 11 12 12 12 13 13 13 12
28 28 28 28 28 28 28 28 27 27 26 26 26 27 27 28 28 28 27 26 26 25 25 25 25 25 25 25 24 22 20 19 19 18 17 17 16 15 14 13 12 11 10 9 8 8 7 6 6 5 5 5 5 6 7 8 9 10 10 11 11 11 11 12 12 12 12 12 12
29 29 29 29 29 29 29 29 28 28 27 27 27 28 28 29 29 29 28 28 27 26 26 26 26 26 26 25 24 22 20 19 18 18 17 16 16 15 14 12 11 10 9 8 8 8 7 7 6 5 5 6 7 8 9 9 10 11 11 11 11 11 11 11 11 11 11 11 11
30 30 31 31 30 30 29 29 29 29 29 29 29 29 29 29 29 29 29 28 28 27 27 27 26 26 25 24 23 21 20 18 18 17 17 16 15 14 13 12 11 10 9 9 8 8 8 7 7 7 7 7 8 9 10 10 10 10 10 10 10 10 10 10 10 10 10 11 12
31 31 32 32 31 30 30 30 30 30 30 30 30 30 30 29 29 29 29 28 28 27 27 26 26 25 25 23 22 21 20 19 18 17 16 15 14 13 12 11 11 10 9 9 8 8 8 9 9 8 9 9 9 9 9 9 9 9 9 9 9 10 10 10 10 10 10 11 12
32 32 32 32 32 31 31 31 32 32 32 31 31 31 30 30 29 29 29 28 28 27 27 26 25 25 24 23 22 21 20 20 18 17 15 15 14 13 12 11 10 10 9 9 8 9 9 10 10 10 10 10 10 9 8 8 7 7 8 8 9 10 10 10 10 10 10 10 11
33 33 33 32 32 33 33 33 33 33 32 32 32 31 31 30 30 30 29 29 28 27 26 25 25 24 23 22 21 20 20 19 18 17 16 15 14 14 13 11 10 10 9 9 8 8 9 10 11 11 11 10 10 9 8 7 6 6 7 8 9 10 11 11 10 10 9 9 10
34 34 34 34 34 34 34 34 34 33 33 32 32 31 31 31 30 30 29 28 27 26 26 25 25 24 23 22 21 20 19 19 18 18 17 16 15 14 13 12 11 10 10 9 9 9 9 9 10 10 10 10 10 9 8 8 7 7 8 9 10 11 12 11 11 10 10 9 10
35 35 35 35 35 35 35 35 34 34 33 33 32 32 31 31 30 29 28 27 27 26 26 25 25 24 23 22 21 20 19 19 19 18 18 17 16 14 13 12 11 11 10 10 10 9 9 9 9 9 9 9 9 9 9 9 9 9 9 10 11 11 12 12 12 11 10 10 9
36 36 36 36 36 36 36 35 35 34 34 33 33 32 31 31 30 29 28 27 27 26 26 26 25 24 23 22 21 21 21 20 19 18 18 17 16 15 14 13 12 12 11 11 10 10 9 9 8 8 7 8 8 9 10 11 11 11 11 11 11 11 12 12 12 11 11 10 10
36 37 37 37 36 36 36 36 35 35 35 34 33 32 32 31 30 29 28 28 27 27 26 26 25 24 23 23 22 22 21 20 19 18 17 17 16 16 15 15 14 13 13 12 12 11 10 9 8 7 7 7 8 9 11 11 12 11 11 11 11 11 11 11 11 11 10 10 9
37 37 37 37 36 36 36 36 36 35 35 34 33 32 32 31 30 29 29 28 28 28 27 26 26 25 24 24 23 22 22 21 20 19 18 18 17 17 17 17 16 16 14 13 13 12 11 9 8 7 7 7 8 10 11 11 12 12 12 11 11 11 11 11 10 10 10 9 9
37 37 37 37 36 36 36 36 36 35 34 33 33 32 32 31 30 30 30 29 29 28 27 27 27 26 26 25 24 23 22 21 20 19 18 19 19 19 19 19 18 17 16 14 13 13 12 10 8 7 7 7 8 10 11 11 12 12 12 12 11 11 10 10 9 9 9 9 9
37 37 37 37 36 35 35 35 35 34 34 33 33 32 32 31 31 30 30 30 29 28 28 28 28 27 27 25 24 23 22 21 20 19 19 19 20 20 20 19 18 17 16 15 14 13 12 11 9 8 8 8 8 9 10 11 12 12 13 13 12 11 10 10 9 9 9 9 9
37 37 37 36 36 35 35 35 35 34 34 33 33 33 32 32 31 31 30 30 29 29 29 29 29 28 27 25 24 23 22 21 20 20 19 19 20 20 20 20 18 17 16 15 14 13 13 12 11 9 8 8 9 9 10 11 12 12 13 13 13 12 11 11 10 10 9 9 9
37 37 37 36 36 35 35 35 34 34 34 34 33 33 33 32 32 31 30 30 30 30 30 30 29 28 27 26 25 24 22 21 21 20 19 20 21 21 21 20 18 17 16 15 14 14 13 12 11 10 9 9 9 9 10 10 11 12 13 13 13 13 13 12 12 11 10 9 9
37 37 36 36 36 35 35 35 34 34 34 34 33 33 33 33 32 32 31 30 30 30 29 29 28 27 27 25 25 24 23 22 21 20 20 21 21 21 21 19 18 16 15 15 14 14 13 13 12 11 10 9 9 9 10 10 11 11 12 13 13 14 13 13 13 12 11 11 10
37 37 36 36 36 36 35 35 35 34 34 34 33 33 33 33 33 32 32 31 30 30 29 28 27 27 26 25 24 23 23 22 21 21 21 21 21 21 21 19 18 16 15 15 14 14 14 13 12 11 10 10 10 10 10 10 10 11 12 12 13 13 14 14 13 13 13 13 13
38 38 37 37 36 36 36 35 35 35 34 34 33 33 33 33 33 32 32 32 31 31 30 29 28 27 26 25 24 23 23 22 22 22 21 21 22 21 21 20 18 16 15 15 14 14 13 13 12 11 10 10 10 10 9 9 9 10 10 11 12 12 13 13 14 14 15 15 14
38 38 38 38 37 37 36 36 36 35 34 34 34 34 34 33 33 32 32 32 32 32 31 30 29 28 27 26 25 23 22 22 22 22 22 21 21 22 21 20 18 17 15 14 14 13 13 12 11 11 10 10 10 9 9 8 9 9 9 10 10 11 11 12 13 14 15 14 14
38 38 38 38 38 37 37 36 36 35 35 35 34 35 35 34 34 33 32 32 33 33 32 30 29 28 27 26 25 23 22 21 20 21 21 21 21 21 21 20 19 17 15 14 13 13 12 12 11 10 9 9 9 8 8 8 8 9 9 9 9 9 10 10 11 13 13 13 12
38 38 38 38 38 38 37 37 36 36 36 35 35 35 35 35 34 33 33 32 32 32 32 31 30 29 27 26 25 24 22 20 19 19 20 20 20 21 21 20 19 17 15 13 13 12 12 12 11 10 9 8 7 7 7 7 8 8 8 8 8 9 10 10 11 12 13 14 13
37 38 38 38 39 38 38 37 36 36 36 36 36 36 35 35 34 33 33 32 31 31 31 31 30 29 27 26 25 24 23 21 19 19 19 19 20 20 20 20 18 17 15 13 12 12 12 11 11 10 9 7 6 6 6 6 7 8 8 8 9 10 11 12 13 13 14 14 14
37 37 38 38 38 39 38 37 37 37 37 37 37 36 35 35 34 34 33 32 31 31 31 31 30 29 27 26 25 25 24 22 20 19 19 19 19 19 19 18 18 16 15 13 12 12 11 11 10 9 8 7 6 5 5 6 7 8 8 9 10 11 13 14 14 14 14 14 14
Wind_Direction
206 208 209 211 212 214 216 217 219 220 220 218 215 213 212 211 210 210 211 212 215 217 218 217 214 209 205 202 200 198 195 194 194 194 196 198 200 202 205 208 211 212 211 209 209 211 218 230 240 249 259 270 299 39 61 66 77 83 82 76 68 62 58 58 57 54 49 45 40
206 208 209 210 212 213 215 216 216 216 215 214 212 211 210 210 210 209 208 207 209 212 214 211 207 203 199 197 196 195 194 193 193 194 196 198 200 201 201 200 199 197 194 191 193 201 214 226 234 230 208 159 122 100 91 85 84 82 75 65 56 50 48 49 48 45 41 39 37
205 207 208 209 210 211 212 212 211 210 209 208 208 208 209 209 209 208 205 202 204 209 210 207 203 201 200 198 196 196 196 196 196 196 195 195 193 191 189 186 183 180 181 185 192 200 206 206 192 162 141 130 121 103 91 85 82 76 67 57 49 45 45 45 46 43 37 32 32
204 205 206 207 208 209 209 208 206 204 204 204 204 206 208 208 208 206 203 200 203 207 208 204 200 199 199 196 192 190 189 191 192 191 187 184 179 176 173 174 174 176 180 186 191 188 173 152 142 137 132 124 109 93 82 78 77 74 70 63 55 50 49 47 47 43 31 22 23
203 204 204 206 207 207 206 205 203 201 202 202 203 204 204 204 204 203 202 202 204 204 202 197 194 193 193 189 183 179 179 180 182 181 178 172 167 166 168 171 174 176 180 184 179 157 139 138 138 133 123 110 95 85 80 79 82 84 85 83 79 74 68 59 44 21 4 8 12
200 202 203 204 205 205 204 203 202 202 203 204 203 201 199 199 201 201 201 202 202 198 192 189 189 188 185 180 176 174 174 174 174 174 170 165 164 166 170 172 175 177 179 171 150 136 133 136 132 123 113 105 100 97 96 98 105 107 104 102 102 104 103 84 21 344 337 354 10
199 200 200 202 202 202 202 202 202 203 204 203 201 198 196 197 200 202 202 201 196 188 182 182 183 181 177 174 172 172 171 170 170 168 166 165 167 170 173 173 171 167 158 146 137 134 134 133 124 117 113 111 109 107 107 116 128 128 121 118 122 126 126 113 77 23 16 28 31
197 197 198 198 199 199 200 201 201 201 202 201 199 196 195 197 198 199 199 195 188 180 176 176 176 175 173 171 171 171 170 169 168 168 168 170 171 172 170 165 156 147 141 139 137 135 134 132 126 122 120 118 114 112 118 142 159 153 136 125 126 125 117 100 86 71 54 36 30
194 195 195 196 196 197 198 199 200 200 200 199 197 195 194 194 193 193 192 189 184 178 174 173 172 171 170 170 171 171 171 169 168 169 171 173 173 169 162 151 142 137 136 137 137 137 135 134 132 130 129 127 123 124 137 162 171 159 140 128 124 121 112 93 71 57 42 30 30
191 192 192 193 194 195 196 198 198 197 196 194 192 190 189 188 187 188 188 187 184 179 175 174 172 171 171 171 172 172 171 170 170 170 171 171 168 161 152 144 139 136 136 139 140 141 141 140 139 139 139 136 132 132 138 154 158 146 133 126 120 112 103 88 67 54 48 44 45
189 190 190 191 191 193 194 194 193 192 190 187 184 183 182 182 183 185 186 185 180 178 178 177 176 174 173 172 171 171 170 169 169 168 167 164 159 154 148 144 142 140 141 144 147 150 150 149 146 144 142 142 141 140 141 145 141 132 126 123 117 103 91 81 70 62 59 57 58
188 188 189 189 190 192 192 191 188 186 182 179 177 176 176 178 180 181 180 179 176 177 178 178 177 175 172 169 167 166 166 166 166 165 163 158 154 150 147 147 146 145 147 150 155 158 157 155 151 147 144 144 144 145 146 146 140 132 127 124 114 99 87 79 73 67 63 62 64
187 186 187 188 189 190 188 186 182 178 175 172 171 172 173 175 175 175 174 174 175 174 173 172 171 169 166 163 161 161 162 163 163 162 158 155 153 151 150 149 150 151 153 156 160 162 161 158 155 151 148 146 146 148 149 150 144 136 129 122 112 101 91 82 76 71 70 71 72
185 185 186 187 187 186 183 179 175 172 170 169 169 170 171 171 171 171 171 172 172 169 165 161 159 158 158 158 159 160 161 161 161 159 157 156 157 155 154 154 156 158 159 160 163 164 163 160 159 158 154 150 148 150 153 153 146 138 131 123 113 104 95 88 83 80 79 79 78
183 184 185 185 184 181 177 173 170 167 166 166 167 168 168 167 167 168 169 169 167 163 158 154 151 151 153 155 157 159 160 160 159 158 159 159 159 159 159 161 163 164 163 161 162 163 162 161 163 163 161 155 153 153 156 157 150 141 131 122 113 105 99 93 89 86 83 80 78
181 182 182 181 179 175 171 167 164 163 163 163 165 166 166 165 166 166 167 166 163 159 154 151 150 149 151 153 155 156 157 158 159 160 160 161 161 163 164 166 166 166 165 163 163 163 162 161 162 165 165 162 158 156 155 151 143 133 125 118 112 107 102 98 93 89 85 81 77
179 179 179 176 173 169 165 163 162 162 162 163 165 166 166 166 165 164 165 165 162 158 154 152 152 152 152 153 154 156 157 158 160 162 163 164 165 166 166 166 165 165 166 167 167 166 164 160 158 159 162 162 156 151 146 139 131 123 118 115 111 107 103 99 95 90 86 81 77
176 175 174 171 167 165 164 163 163 163 164 165 166 167 167 166 163 161 161 163 164 161 157 155 156 156 156 156 157 159 161 163 164 165 166 166 168 168 167 164 163 163 166 168 169 167 163 157 155 154 156 153 146 138 132 127 121 117 114 112 110 107 103 99 95 91 86 82 78
173 171 168 166 165 164 165 165 166 166 167 167 167 167 166 164 161 157 157 159 163 164 163 160 160 160 160 160 161 164 167 168 168 166 165 165 166 167 165 162 160 161 164 165 164 160 154 149 147 147 146 142 134 128 124 121 118 115 113 112 110 107 105 101 97 94 89 85 80
168 166 165 164 165 166 166 166 167 167 167 167 166 164 162 161 158 156 155 157 162 165 166 164 163 163 163 164 165 166 168 168 167 164 162 162 162 162 160 159 157 157 158 157 153 149 143 138 135 133 130 126 124 123 122 120 117 116 114 113 111 110 109 106 104 100 95 90 85
165 164 164 165 167 167 166 165 165 165 165 164 164 162 161 159 158 157 157 159 161 163 163 164 165 165 166 167 167 166 164 163 161 159 158 159 157 156 155 155 154 153 152 149 145 140 134 130 126 122 120 119 118 119 120 120 119 117 116 115 114 114 114 113 111 106 100 93 88
162 162 164 166 167 166 164 163 163 162 162 162 162 161 160 159 158 158 158 159 160 161 162 163 165 168 169 169 167 164 160 157 156 155 155 155 152 150 150 151 152 150 148 144 140 136 131 125 121 118 117 117 118 119 120 120 120 119 118 118 119 120 120 118 115 110 103 97 92
160 161 162 164 165 164 162 161 161 160 160 160 160 160 160 159 158 158 158 159 161 162 163 165 166 168 168 168 166 162 158 155 153 152 151 151 148 146 145 147 148 146 142 138 136 133 129 125 122 120 119 119 120 121 122 123 123 123 124 124 125 125 122 117 115 110 105 101 98
158 159 159 161 161 161 160 160 160 159 159 159 159 159 159 158 158 158 159 160 162 164 165 166 165 165 164 163 162 161 159 157 154 151 148 147 144 143 143 144 143 139 134 130 128 128 126 124 124 123 122 122 122 123 123 124 126 126 129 130 131 129 124 118 113 108 105 105 103
157 157 157 158 159 159 159 159 159 158 158 158 159 159 159 159 159 159 160 161 163 165 165 164 162 161 160 158 157 157 158 157 155 152 148 145 142 141 141 141 137 133 128 124 122 121 121 120 121 122 123 122 122 121 120 119 119 121 126 131 132 130 126 120 114 107 104 103 104
156 156 156 157 157 158 158 158 159 159 159 159 159 159 158 158 159 160 161 161 162 163 162 160 158 156 155 155 154 153 153 153 154 152 149 145 142 140 138 135 131 127 124 123 123 123 121 118 118 118 119 119 119 117 115 112 111 114 120 127 131 130 126 120 113 108 104 101 101
154 154 155 156 156 156 157 159 159 159 158 158 158 158 158 159 159 160 161 161 160 159 158 156 154 153 153 153 152 151 150 150 150 150 148 145 141 137 133 129 125 123 123 126 128 127 125 122 119 118 117 117 115 113 110 109 109 112 118 124 128 128 125 119 114 110 106 102 99
153 154 154 155 155 156 157 158 158 158 158 158 158 159 159 159 160 160 160 159 158 156 154 152 152 152 152 151 151 150 149 148 147 146 144 142 138 134 129 125 122 122 125 128 129 129 128 127 125 122 119 116 113 110 108 107 109 111 116 120 124 124 122 119 116 113 110 105 100
154 154 154 155 155 156 157 158 158 158 158 159 159 159 160 159 159 159 159 158 157 154 152 151 152 152 151 149 149 148 147 146 145 144 142 139 135 130 127 124 124 126 129 131 131 130 130 130 129 126 121 117 113 109 106 105 107 109 112 116 118 119 119 119 118 116 113 109 104
155 155 155 155 155 156 157 157 158 158 158 159 159 159 159 159 158 158 158 157 156 155 155 154 152 151 149 148 148 146 145 144 144 144 142 138 134 131 128 127 128 130 132 133 132 131 131 131 131 129 123 118 113 110 106 104 105 106 109 111 113 114 116 117 117 117 115 112 108
156 156 156 156 156 156 157 157 158 158 158 159 159 159 158 158 157 157 158 158 157 157 157 155 153 150 149 149 147 146 144 143 144 143 142 138 135 132 131 130 131 133 134 134 133 133 133 133 132 129 125 119 114 110 108 106 105 105 106 107 108 109 111 112 114 114 114 113 111
156 157 157 156 155 156 156 157 157 158 158 159 159 158 158 157 157 158 158 159 158 157 155 154 152 150 148 147 146 145 144 143 143 142 141 139 136 133 132 132 133 134 134 134 134 133 133 133 133 131 127 122 117 113 110 108 106 105 105 105 105 105 106 107 108 109 110 110 108
157 157 157 156 155 155 156 157 157 158 158 158 159 158 158 157 157 157 158 158 158 156 155 154 152 150 148 148 146 144 144 143 142 142 141 139 137 134 133 132 132 133 134 135 135 135 135 136 136 134 131 126 121 117 114 110 107 106 105 104 103 103 103 103 103 103 102 103 103
158 157 157 156 156 155 156 157 157 157 158 157 158 158 158 158 157 156 156 156 156 156 155 154 153 151 150 149 147 145 143 143 142 141 140 139 137 135 133 132 133 134 135 136 136 137 137 139 141 141 138 133 128 123 119 114 110 108 106 105 104 103 102 101 100 97 95 96 98
159 158 157 156 156 156 156 156 157 158 157 157 157 158 158 158 158 156 155 155 154 153 152 152 152 151 149 149 148 146 143 142 141 141 140 139 137 134 133 132 134 135 137 138 138 139 141 144 147 148 145 140 135 131 126 120 116 113 111 109 107 106 104 101 98 94 92 92 95
160 159 158 157 157 157 157 157 158 158 158 157 157 157 158 158 157 157 156 155 154 152 151 150 150 149 148 147 146 145 144 142 141 140 140 140 138 135 134 134 135 137 139 140 141 142 145 149 154 155 153 148 143 139 134 128 123 120 117 115 111 109 106 102 98 94 92 90 91
162 161 160 158 157 157 158 158 158 158 158 158 158 158 158 157 156 156 156 156 154 152 151 151 151 150 148 147 145 145 144 143 142 141 141 141 140 138 136 136 137 138 140 142 144 146 150 156 160 163 161 156 151 147 143 136 130 128 125 121 117 114 110 106 101 97 93 90 85
164 163 162 160 159 159 159 159 159 158 158 158 159 159 159 158 156 156 157 158 156 153 152 152 152 151 150 148 146 144 144 144 143 142 142 142 143 142 141 139 139 140 143 145 147 150 155 161 167 171 171 167 162 159 152 144 138 133 129 125 121 120 117 113 107 102 98 94 87
165 165 164 162 161 160 160 160 160 160 159 159 159 159 159 158 156 156 158 159 158 156 154 153 152 151 150 148 146 144 144 144 144 144 144 144 146 147 145 143 141 142 145 147 150 154 159 165 171 177 180 180 176 172 164 153 143 137 131 126 124 123 122 119 113 106 102 99 95
166 166 165 164 163 162 161 161 161 161 161 160 159 159 158 157 157 157 159 160 159 157 155 153 152 151 150 149 147 145 144 144 145 146 146 147 148 149 148 145 144 144 145 148 152 157 162 168 174 179 184 187 185 182 175 162 149 139 132 126 124 124 125 123 118 112 106 102 98
166 166 166 165 165 164 163 162 162 162 162 161 160 159 159 159 158 158 158 158 158 156 155 153 151 151 150 149 148 146 145 144 145 146 147 148 149 149 149 147 145 145 146 148 153 158 163 169 174 179 183 185 183 182 179 169 155 143 132 127 126 127 128 127 123 118 112 106 101
Height
791 792 793 795 796 797 798 799 800 801 802 803 804 805 806 807 808 809 810 811 812 813 813 814 815 815 816 816 817 818 818 819 820 820 821 821 821 822 822 823 823 824 824 825 825 825 826 826 826 826 826 826 826 826 826 826 826 826 826 826 826 826 826 826 826 826 826 825 825
790 791 793 794 795 796 798 799 800 801 802 803 804 805 806 807 808 809 810 811 811 812 813 814 814 815 816 816 817 818 818 819 819 820 820 821 821 822 822 822 823 823 824 824 825 825 825 825 825 825 826 826 826 826 826 826 826 826 826 826 826 826 826 826 826 826 826 826 825
790 791 792 793 795 796 797 798 799 800 801 802 803 804 806 806 807 808 809 810 811 812 813 813 814 815 816 816 817 818 818 818 819 819 820 821 821 821 822 822 822 823 824 824 824 825 825 825 825 825 826 826 826 826 826 826 826 826 826 826 826 826 826 826 826 826 826 826 825
789 790 791 793 794 795 796 797 799 800 801 802 803 804 805 806 807 808 809 810 811 812 812 813 814 815 816 816 816 817 818 818 819 819 820 820 821 821 821 822 823 823 824 824 824 825 825 825 825 826 826 826 826 826 826 826 826 826 827 827 827 827 827 826 826 826 826 826 825
788 790 791 792 793 795 796 797 799 800 801 802 803 804 805 806 807 808 809 810 811 811 812 813 814 815 815 816 816 817 817 818 818 819 819 820 821 821 822 822 823 823 824 824 824 825 825 825 825 825 826 826 826 826 826 826 826 826 826 827 827 827 827 826 826 826 826 826 825
787 789 790 792 793 794 795 797 798 800 800 801 802 803 804 805 806 807 808 809 810 811 812 812 813 814 815 815 816 816 817 818 818 819 820 820 821 821 822 822 823 823 824 824 825 825 825 825 825 825 825 825 826 826 826 826 826 826 826 826 827 827 826 826 826 826 826 826 825
787 789 790 791 793 794 795 797 798 799 800 801 802 803 804 805 806 807 808 809 810 811 811 812 813 813 814 815 816 816 817 818 818 819 820 821 821 821 822 822 823 823 824 824 825 825 825 825 825 825 825 825 825 826 826 826 826 826 826 826 827 827 826 826 826 826 826 826 825
787 788 790 791 792 794 795 796 797 798 800 800 801 802 803 804 805 806 807 808 809 810 811 811 812 813 814 815 815 816 817 818 819 820 820 821 821 822 822 822 823 823 824 824 824 824 825 825 825 825 825 825 826 826 826 826 826 826 826 826 827 827 826 826 826 826 826 826 825
786 788 790 791 792 793 795 796 797 798 799 800 801 802 803 804 805 806 807 808 809 810 811 811 812 813 814 815 815 816 817 818 819 819 820 821 821 822 822 822 822 823 823 824 824 824 825 825 825 825 825 826 826 826 826 826 826 826 826 827 827 827 827 826 826 826 826 826 825
786 787 789 790 792 793 794 795 796 798 799 800 801 801 802 804 805 806 807 808 809 810 811 811 812 813 814 815 815 816 817 818 819 820 820 821 821 821 822 822 822 823 823 824 824 824 825 825 825 825 825 826 826 826 826 826 826 826 827 827 827 827 827 827 826 826 826 826 826
785 787 789 790 791 793 794 795 796 797 799 800 800 801 802 803 805 806 806 807 808 810 811 811 812 813 814 814 815 816 817 818 819 819 820 820 821 821 822 822 822 823 823 824 824 824 825 825 825 825 826 826 826 826 826 827 827 827 827 827 827 827 827 827 827 826 826 826 826
785 787 788 790 791 792 794 795 796 797 798 799 800 801 802 803 804 805 806 807 808 809 810 811 812 812 813 814 815 816 817 818 819 819 820 820 821 821 821 822 822 823 823 824 824 825 825 825 825 825 826 826 826 826 827 827 827 827 827 827 827 827 827 827 827 826 826 826 826
785 786 788 789 791 792 793 794 795 797 798 799 800 800 801 803 804 804 806 806 808 809 810 811 811 812 813 814 815 816 817 818 818 819 820 820 821 821 822 822 823 823 824 824 824 825 825 825 825 826 826 826 826 826 827 827 827 827 827 827 827 827 827 827 827 826 826 826 826
784 786 787 789 790 792 793 794 795 796 798 798 799 800 801 803 804 804 805 806 807 809 810 811 811 812 813 814 815 816 816 817 818 819 820 820 821 821 822 822 823 823 824 824 825 825 825 825 826 826 826 826 826 826 827 827 827 827 827 827 827 827 827 827 827 827 826 826 826
784 785 787 788 790 791 793 794 795 796 797 798 799 800 801 803 804 804 805 806 808 809 810 810 811 812 813 814 815 816 816 817 818 819 819 820 821 821 822 823 823 823 824 824 825 825 825 826 826 826 826 826 826 826 826 826 827 827 827 827 827 827 827 827 827 827 826 826 826
783 785 786 788 789 791 792 793 795 795 797 798 799 800 801 803 804 805 805 806 808 809 810 811 811 813 814 815 815 816 817 817 818 819 819 820 821 821 822 823 823 823 824 824 825 825 826 826 826 826 826 826 826 826 826 826 826 827 827 827 827 827 827 827 827 827 827 826 826
782 784 785 787 789 790 791 792 794 795 796 797 799 800 801 803 804 805 805 806 808 809 810 811 812 813 814 815 816 816 817 818 818 819 819 820 821 821 822 823 823 824 824 824 825 825 825 826 826 826 826 826 826 826 826 826 827 827 827 827 827 827 827 828 827 827 827 827 827
782 783 785 786 788 789 790 791 793 795 796 797 799 800 801 803 804 804 805 806 807 809 810 811 812 813 814 815 816 816 817 817 818 818 819 820 821 821 822 823 823 824 824 825 825 825 825 826 826 826 826 826 826 826 827 827 827 827 827 828 828 828 828 828 828 828 827 827 827
781 783 784 786 787 788 789 791 792 794 796 797 799 800 801 803 803 804 805 806 807 808 809 810 812 813 813 814 815 816 817 817 818 819 819 820 821 822 822 823 824 824 824 825 825 825 825 826 826 826 826 826 826 827 827 827 827 828 828 828 828 828 828 828 828 828 828 827 827
780 782 783 785 786 788 789 790 792 794 795 797 799 800 801 802 803 804 805 806 807 808 809 810 811 812 813 814 815 816 817 818 818 819 820 821 821 822 822 823 824 824 825 825 825 825 825 826 826 826 826 826 827 827 827 827 828 828 828 828 828 828 828 828 828 828 828 828 828
780 781 782 784 785 788 789 790 792 794 795 797 798 800 801 802 803 804 805 806 807 808 809 810 811 812 813 814 815 816 817 818 819 819 820 821 822 822 823 823 824 824 825 825 825 825 826 826 826 826 826 827 827 827 827 828 828 828 828 829 829 829 829 829 828 828 828 828 828
779 780 782 783 785 787 789 790 792 794 795 797 798 800 801 802 803 804 805 806 807 809 810 811 811 812 813 814 815 816 817 818 819 820 821 821 822 823 823 824 824 824 825 825 825 826 826 826 826 827 827 827 827 828 828 828 828 829 829 829 829 829 829 829 829 828 828 828 828
779 780 781 783 785 787 789 790 792 793 795 796 798 799 800 802 803 804 806 806 808 809 810 811 812 812 813 814 815 816 817 818 819 820 821 822 822 823 823 824 824 824 825 825 825 826 826 826 827 827 827 828 828 828 828 828 829 829 829 829 829 829 829 829 829 829 829 829 829
778 780 781 784 785 787 789 790 792 793 795 796 798 799 800 802 803 804 806 807 808 809 810 811 812 813 814 815 816 816 817 818 819 820 821 822 823 823 824 824 824 825 825 825 826 826 826 827 827 827 828 828 828 828 829 829 829 829 829 829 829 829 829 829 829 829 829 829 829
778 780 781 783 785 787 789 790 792 793 795 796 798 799 800 801 803 804 806 807 808 809 810 811 812 813 814 815 816 817 818 818 819 820 821 822 823 823 824 824 825 825 825 826 826 827 827 827 828 828 828 828 828 829 829 829 829 829 829 829 829 829 829 829 829 829 829 829 829
778 779 781 783 785 787 789 790 792 793 795 796 797 799 800 801 803 804 806 807 808 809 811 811 813 814 815 816 816 817 818 819 820 820 821 822 823 823 824 824 825 825 825 826 826 827 827 828 828 828 829 829 829 829 829 829 829 829 829 829 829 829 829 829 829 829 829 830 830
777 779 781 783 785 787 789 790 791 793 795 796 797 799 800 801 803 804 806 807 808 810 811 812 813 814 815 816 817 817 818 819 820 821 821 822 823 823 824 824 825 825 826 826 827 827 828 828 829 829 829 829 829 829 829 829 829 829 829 829 829 829 829 829 829 830 830 830 830
777 779 781 783 785 787 788 790 791 793 794 796 797 798 800 801 803 804 806 807 808 810 811 812 813 814 815 816 817 818 819 820 821 821 822 822 823 824 824 825 825 826 826 827 827 828 828 829 829 829 830 830 830 830 829 829 829 829 829 829 829 829 829 829 830 830 830 830 830
777 779 781 783 785 787 788 790 791 793 794 795 797 798 800 801 802 804 805 807 808 809 811 812 813 814 815 816 817 818 819 820 821 821 822 823 823 824 825 825 826 826 827 828 828 828 829 829 829 830 830 830 830 830 830 830 830 830 829 829 829 829 829 830 830 830 830 830 831
777 779 781 783 785 787 788 790 791 793 794 795 797 798 800 801 802 804 805 806 808 809 810 811 812 814 815 816 817 818 819 820 821 822 822 823 823 824 825 826 826 827 828 828 829 829 829 829 830 830 830 830 830 830 830 830 830 830 830 830 830 830 830 830 830 830 830 831 831
777 779 781 783 785 787 788 790 791 793 794 795 797 798 800 801 802 804 805 806 807 809 810 811 812 814 815 816 817 819 820 821 821 822 823 823 824 824 825 826 827 827 828 829 829 829 830 830 830 830 830 830 830 830 830 830 830 830 830 830 830 830 830 830 830 830 831 831 831
777 779 781 783 785 787 788 790 791 793 794 795 797 798 800 801 802 804 805 806 807 808 810 811 812 814 815 816 818 819 820 821 822 822 823 823 824 825 826 826 827 828 829 829 829 830 830 830 830 831 831 831 830 830 830 830 830 830 830 830 830 830 830 830 830 830 831 831 831
777 779 780 782 785 786 788 790 791 793 794 795 797 798 800 801 802 804 805 806 807 808 810 811 812 814 815 816 818 819 820 821 822 823 823 824 824 825 826 826 827 828 829 829 830 830 830 831 831 831 831 831 831 830 830 830 830 830 830 830 830 830 830 830 830 831 831 831 831
777 779 780 782 784 786 788 790 791 793 794 795 797 798 799 801 802 804 805 806 808 809 810 811 813 814 815 816 817 819 820 821 822 823 823 824 824 825 826 827 828 829 829 830 830 830 831 831 831 831 831 831 831 831 830 830 830 830 830 830 830 830 830 830 831 831 831 831 831
776 778 780 782 784 785 787 789 791 792 794 795 797 798 800 800 802 803 805 806 808 809 811 812 813 815 816 817 818 819 820 821 822 823 823 824 824 825 826 827 828 829 830 830 830 831 831 831 831 831 831 831 831 831 831 830 830 830 830 830 830 830 831 831 831 831 831 831 831
775 777 779 781 783 785 787 789 790 792 793 795 796 798 800 801 802 803 805 806 808 809 811 812 814 815 816 817 819 820 821 821 822 823 823 824 824 825 826 827 828 829 830 830 831 831 831 831 831 831 831 831 831 831 831 831 830 830 830 830 831 831 831 831 831 831 831 831 832
775 776 778 780 782 784 786 788 790 791 793 795 796 797 799 801 802 804 805 806 807 809 811 812 814 815 816 817 819 820 821 821 822 823 823 824 825 825 826 827 828 829 830 830 831 831 831 831 831 831 831 831 831 831 831 831 831 831 831 831 831 831 831 831 831 831 831 832 832
774 775 777 779 781 783 785 787 789 790 792 794 796 797 799 800 802 803 805 806 807 808 810 812 814 815 816 817 819 820 821 822 822 823 823 824 825 825 826 827 828 829 830 830 831 831 831 831 831 831 831 831 831 831 831 831 831 831 831 831 831 831 831 832 832 832 832 832 832
774 775 777 779 780 783 785 787 788 790 791 793 795 797 799 800 801 803 805 806 807 808 810 811 813 815 816 818 819 820 821 822 823 823 824 824 825 826 826 826 828 829 830 830 831 831 831 831 831 831 831 831 831 831 831 831 831 831 831 831 831 831 831 832 832 832 832 832 832
773 775 777 778 780 782 784 786 788 790 791 793 795 796 798 800 801 803 805 806 807 809 810 811 813 815 816 818 819 820 821 822 823 823 824 824 825 826 826 827 828 829 830 830 831 831 831 831 831 831 831 831 831 831 831 831 830 831 831 831 831 831 832 832 832 832 832 832 832
773 775 777 778 780 782 784 785 788 790 791 792 794 796 798 799 801 803 805 806 808 809 811 812 813 815 816 818 819 820 821 822 823 824 824 825 825 826 826 827 828 829 829 830 831 831 831 831 831 831 831 831 831 831 831 830 830 830 831 831 831 831 832 832 832 833 833 833 833